Location: ?????????
(55.6553°N, 38.9075°E)
Time: 01:50:38
(UTC+00:00)

Aureole 1 Rocket - Pass Details

Date: 18 October 2019
Orbit: 380 x 1382 km, 73.9° (Epoch: 21 November)

Event Time Altitude Azimuth Distance (km) Brightness Sun altitude
Exits shadow 01:16:01 20° 186° (S) 1,977 5.4 -23.6°
Maximum altitude 01:20:04 59° 113° (ESE) 917 4.0 -23.1°
Drops below altitude 10° 01:24:42 10° 35° (NE) 2,081 6.4 -22.4°
Sets 01:26:42 0° 31° (NNE) 2,865 7.2 -22.2°
